User: anonymous   Login
Location: Grisols
(45.0093°N, 3.1167°E)
Time: 01:58:38
(UTC+00:00)
Language:

YAOGAN 1 - Orbit

View from above orbital plane
View from above orbital plane
View from above satellite
View from above satellite

Ground track
Ground track

The orbit data is extracted from the following two-line orbital elements,

1 29092U 06015A   19349.11232540  .00000053  00000-0  13141-4 0  9990
2 29092  97.9567   9.4447 0001423  90.1883 269.9493 14.83030968737364
Epoch (UTC): 15 December 2019 02:41:44
Eccentricity: 0.0001423
inclination: 97.9567°
perigee height: 619 km
apogee height: 621 km
right ascension of ascending node: 9.4447°
argument of perigee: 90.1883°
revolutions per day: 14.83030968
mean anomaly at epoch: 269.9493°
orbit number at epoch: 73736

The dashed part of the orbit path shows where the satellite is in the earth's shadow,  

DLR